{"data":{"norad_id":53438,"epoch":"2026-05-25T05:29:30.365088Z","epoch_age_seconds":48556,"freshness":"FRESH","line1":"1 53438U 22097BC  26145.22882367 -.00001351  00000+0 -66776-4 0  9996","line2":"2 53438  53.2140 120.1652 0001259  73.9894 286.1237 15.08849591210354","mean_motion":15.08849591,"eccentricity":0.0001259,"inclination_deg":53.214,"raan_deg":120.1652,"arg_perigee_deg":73.9894,"mean_anomaly_deg":286.1237,"bstar":-6.6776e-5,"rev_number":21035,"period_min":95.436948029103,"perigee_km":538.84311581921,"apogee_km":540.58503071945,"semimajor_km":6917.8510732693,"source":"CELESTRAK","updated_at":"2026-05-25T13:38:17.407433Z"}}